Regional Weather Roundup
Issued by NWS

Home | Current Version | Previous Version | Text Only | Print | Product List | Glossary Off
Versions: 1 2 3 4 5 6 7 8 9 10 11 12 13 14 15 16 17 18 19 20 21 22 23 24 25 26 27 28 29 30 31 32 33 34 35 36 37 38 39 40 41 42 43 44 45 46 47 48 49 50

000
ASUS43 KMPX 211101
RWRMN
WEATHER ROUNDUP FOR MINNESOTA
NATIONAL WEATHER SERVICE TWIN CITIES/CHANHASSEN MN
500 AM CST FRI NOV 21 2014


NOTE: "FAIR" INDICATES FEW OR NO CLOUDS BELOW 12,000 FEET WITH NO
SIGNIFICANT WEATHER AND/OR OBSTRUCTIONS TO VISIBILITY. N/A MEANS
CURRENT SKY AND/OR WEATHER CONDITIONS ARE NOT AVAILABLE.

MNZ060>063-068>070-211200-
   Twin Cities Metro

CITY           SKY/WX    TMP DP  RH WIND       PRES   REMARKS
TWIN CITIES    MOCLDY     6   1  80 SE7       30.24F WCI  -6
ST PAUL        MOCLDY     5   2  87 SE7       30.27F WCI  -7
CRYSTAL        MOCLDY     8   2  76 SE5       30.22F WCI   0
BLAINE         PTCLDY     7   3  85 S8        30.21F WCI  -6
LAKEVILLE      MOCLDY     0  -2  92 SE3       30.23F
EDEN PRAIRIE   MOCLDY     4   1  88 S8        30.21F WCI  -9
SOUTH ST PAUL  MOCLDY     5   1  84 CALM      30.26S
LAKE ELMO      FAIR       3   1  92 S5        30.25F WCI  -6
$$
MNZ001>005-007-008-013>017-022>024-027-028-211200-
   Northwest Minnesota

CITY           SKY/WX    TMP DP  RH WIND       PRES   REMARKS
BEMIDJI        MOCLDY    10   2  70 S12       29.98F WCI  -5
HALLOCK        PTCLDY    16   9  73 S25       29.85F WCI  -3
ROSEAU         CLOUDY    16   9  73 S18G25    29.87F WCI  -1
WARROAD        MOCLDY    14   7  73 S10G17    29.89F WCI   1
THIEF RVR FALL CLOUDY    14   9  79 S16       29.91F WCI  -2
CROOKSTON      CLOUDY    14   9  79 S22G29    29.94F WCI  -4
FOSSTON        PTCLDY    10   3  72 S14       29.94F WCI  -5
DETROIT LAKES  PTCLDY    14  10  85 S12       29.98F WCI   0
MOORHEAD       PTCLDY    14  10  85 S20G26    29.97F WCI  -3
PARK RAPIDS    PTCLDY     5   1  83 S10       30.01F WCI -10
MAHNOMEN       FAIR      13   6  74 S12G21    29.96F WCI  -1
$$
MNZ006-009>011-018-025>026-211200-
   North Central Minnesota

CITY           SKY/WX    TMP DP  RH WIND       PRES   REMARKS
BAUDETTE       PTCLDY    12   3  67 S8G17     29.92F WCI   0
FLAG ISLAND    CLOUDY    16  10  79 S21       29.87F HAZE    WCI  -2
INTL FALLS       N/A      8   2  76 S7        29.99F WCI  -3
WASKISH        CLOUDY    10   3  72 S9G18     29.95F WCI  -2
BIG FORK       PTCLDY    10   1  67 S8        30.01F WCI  -1
LONGVILLE      MOCLDY     9   3  78 S7        30.05F WCI  -3
GRAND RAPIDS   PTCLDY     3   0  85 S10       30.05F WCI -12
CRANE LAKE     PTCLDY     3   0  85 CALM      30.06F
ORR            CLOUDY     3  -2  78 SE6       30.01F WCI  -8
COOK           PTCLDY     5  -2  72 S6        30.05F WCI  -6
WALKER         FAIR      10   1  68 S6        30.03F WCI   0
$$
MNZ012-019>021-037-211200-
   Northeast Minnesota

CITY           SKY/WX    TMP DP  RH WIND       PRES   REMARKS
DULUTH         MOCLDY     6  -1  73 SW8       30.11F WCI  -7
ELY            MOCLDY     3   0  85 S6        30.07S WCI  -8
HIBBING        PTCLDY     0  -6  76 VRB3      30.09F
EVELETH        PTCLDY     0  -6  78 CALM      30.10F
DULUTH HARBOR  MOCLDY     5   0  78 SW6       30.21F WCI  -6
TWO HARBORS    MOCLDY     5   0  78 CALM      30.13F
SILVER BAY     PTCLDY     7   0  72 CALM      30.13F
GRAND MARAIS     N/A      9  -2  61 W6        30.19R WCI  -1
G MARAIS ARPRT PTCLDY     0  -8  71 W5        30.07F WCI -10
$$
MNZ029>031-032-039>041-046>048-054>057-064-211200-
   West Central Minnesota

CITY           SKY/WX    TMP DP  RH WIND       PRES   REMARKS
FERGUS FALLS   PTCLDY    12   7  79 S17       30.04F WCI  -5
WHEATON        MOCLDY     9   5  85 SE22      30.01F WCI -11
MORRIS         MOCLDY     7   3  85 SE16      30.04F WCI -11
ALEXANDRIA     PTCLDY    11   6  81 S16       30.05F WCI  -6
ELBOW LAKE       N/A     12   7  83 S23       30.01F WCI  -8
WADENA         MOCLDY     9   3  78 S13       30.03F WCI  -7
GLENWOOD       PTCLDY     9   7  92 S14       30.07F WCI  -8
APPLETON       MOCLDY    10   7  85 SE10      30.08F WCI  -3
BENSON         PTCLDY     9   5  85 S12       30.08F WCI  -6
ORTONVILLE     MOCLDY     7   3  85 SE14      30.04F WCI -10
MADISON        MOCLDY    12   9  85 SE13      30.07F WCI  -3
WILLMAR        FAIR       9   3  78 SE7       30.13F WCI  -3
$$
MNZ033>034-036-042>043-049>051-058-059-211200-
   Central Minnesota

CITY           SKY/WX    TMP DP  RH WIND       PRES   REMARKS
ST CLOUD       PTCLDY     2  -3  80 SE9       30.16F WCI -13
SAUK CENTRE    FAIR       4   1  86 SE9       30.10S WCI -11
PAYNESVILLE    PTCLDY     5   3  91 SE10      30.13F WCI -10
AITKIN         PTCLDY    10   3  72 S6        30.09F WCI   1
PINE RIVER     PTCLDY     7   1  78 SE7       30.09F WCI  -5
BRAINERD       PTCLDY     5   0  79 S12       30.10F WCI -11
STAPLES        PTCLDY     5   1  85 SE8       30.06F WCI  -8
LONG PRAIRIE   FAIR       7   3  85 SE12      30.09S WCI  -9
LITTLE FALLS   PTCLDY     3   0  85 SE6       30.13F WCI  -8
LITCHFIELD     PTCLDY     9   7  92 S3        30.15F
BUFFALO        PTCLDY     4   1  85 SE3       30.20F
MAPLE LAKE     PTCLDY     4   2  90 SE5       30.18F WCI  -5
$$
MNZ037-044-045-052-053-211200-
   East Central Minnesota

CITY           SKY/WX    TMP DP  RH WIND       PRES   REMARKS
PRINCETON      PTCLDY     1  -2  85 CALM      30.18F
MORA             N/A    N/A N/A N/A MISG        N/A
CAMBRIDGE      PTCLDY     3  -4  72 CALM      30.18F
RUSH CITY      PTCLDY    -1  -4  86 SE3       30.22S
MOOSE LAKE     PTCLDY    -9 -15  77 CALM      30.15F
HINCKLEY       FAIR      -8 -11  84 CALM      30.20F
CLOQUET        PTCLDY     0  -6  78 S3        30.13F
MCGREGOR       PTCLDY     5   1  85 S8        30.12F WCI  -8
$$
MNZ071>073-080-081-089-090-097-098-211200-
   Southwest Minnesota

CITY           SKY/WX    TMP DP  RH WIND       PRES   REMARKS
MONTEVIDEO     PTCLDY     9   7  92 S12       30.10F WCI  -6
GRANITE FALLS  MOCLDY     8   4  84 SE14      30.13F WCI  -9
CANBY          MOCLDY    20  16  82 S14G23    30.06F WCI   7
MARSHALL       MOCLDY    16   9  73 S16       30.08F WCI   0
REDWOOD FALLS  PTCLDY     7   2  80 SE12      30.15F WCI  -8
OLIVIA         MOCLDY    10   5  79 S12       30.14F WCI  -4
PIPESTONE      PTCLDY    12   9  85 S14       30.07F WCI  -3
WINDOM         MOCLDY    16  10  79 S13G18    30.13F WCI   2
WORTHINGTON    PTCLDY    12   9  85 S18       30.13F WCI  -5
JACKSON        MOCLDY    14   9  79 S17       30.16F WCI  -3
TRACY          MOCLDY    16  10  78 S17G28    30.09F WCI   0
SLAYTON        PTCLDY    14  11  86 S16       30.10F WCI  -2
$$
MNZ065>067-074>077-082>085-091>093-211200-
   South Central Minnesota

CITY           SKY/WX    TMP DP  RH WIND       PRES   REMARKS
MANKATO        MOCLDY     7   1  78 S7        30.21F WCI  -5
NEW ULM        MOCLDY     7   3  85 S12       30.19F WCI  -9
FAIRMONT       MOCLDY     7   1  78 S12       30.19F WCI  -9
GLENCOE        MOCLDY     7   4  88 S6        30.19F WCI  -3
FARIBAULT      PTCLDY     5   1  85 S3        30.24S
OWATONNA       PTCLDY     9   3  78 S12       30.23S WCI  -6
WASECA         MOCLDY     9   3  78 S9        30.24F WCI  -5
ALBERT LEA       N/A      9   7  92 S6        30.24S WCI  -1
$$
MNZ078>079-086>088-094>096-211200-
   Southeast Minnesota

CITY           SKY/WX    TMP DP  RH WIND       PRES   REMARKS
ROCHESTER      PTCLDY     1  -3  83 S8        30.25S WCI -13
RED WING         N/A      1  -2  85 SE3       30.28S
STANTON        MOCLDY     5   1  80 CALM      30.24F
DODGE CENTER   PTCLDY     3   1  92 S9        30.23S WCI -11
WINONA         CLEAR      7   3  85 CALM      30.34S
AUSTIN         MOCLDY     3   0  85 S5        30.25S WCI  -6
PRESTON        PTCLDY     1  -2  85 S6        30.26F WCI -10
$$
ABBREVIATIONS USED IN REMARKS
   TC - TEMPERATURES IN CELSIUS
  WCI - WIND CHILL INDEX
   HX - HEAT INDEX
  VSB - VISIBILITY
$$



USA.gov is the U.S. government's official web portal to all federal, state and local government web resources and services.